Home > Weather > Masaya > Past weeks

Flag for Nicaragua Past Weather in Masaya, Nicaragua — Yesterday and Last 2 Weeks

Now
77 °F

Passing clouds.


Feels Like: 78 °F
Forecast: 74 / 87 °F
Wind: No wind

Location: Managua A. C. Sandino

Current Time: Jul 27, 2016 at 1:51:04 AM

Latest Report: Jul 27, 2016 at 1:00 AM


Visibility: N/A

Pressure: 29.83 "Hg

Humidity: 83%

Dew Point: 72 °F

Location of MasayaLocation

Past Weather in Masaya — Graph

°F

Masaya Temperature Yesterday

Maximum temperature yesterday: 95 °F (at 1:00 PM)
Minimum temperature yesterday: 73 °F (at 1:00 AM)
Average temperature yesterday: 84 °F

High & Low Weather Summary for the Past Weeks

 TemperatureHumidityPressure
High95 °F (Jul 13, 1:00 PM)100% (Jul 19, 4:00 AM)32.52 "Hg (Jul 19, 4:00 AM)
Low72 °F (Jul 20, 3:00 AM)39% (Jul 26, 1:00 PM)29.74 "Hg (Jul 25, 2:00 PM)
Average82 °F74%29.87 "Hg
* Reported Jul 11 11:00 PM — Jul 26 11:00 PM, Masaya, Weather by CustomWeather, © 2016

Note: Actual official high and low records may vary slightly from our data, if they occured in-between our weather recording intervals... More about our weather records

Advertising

Masaya Weather History for the Previous 24 Hours

Scroll right to see more
 ConditionsComfort  
Time TempWeatherWind HumidityBarometerVisibility
11:00 PM
Tue, Jul 26
79 °FPassing clouds.7 mph79%29.86 "HgN/A
10:00 PM81 °FPassing clouds.5 mph79%29.83 "HgN/A
9:00 PM81 °FPassing clouds.5 mph79%29.83 "HgN/A
8:00 PM81 °FPassing clouds.7 mph84%29.80 "HgN/A
7:00 PM84 °FPassing clouds.12 mph74%29.80 "HgN/A
6:00 PM86 °FPassing clouds.12 mph66%29.77 "HgN/A
5:00 PM91 °FPassing clouds.18 mph49%29.74 "HgN/A
4:00 PM93 °FScattered clouds.12 mph49%29.74 "HgN/A
3:00 PM93 °FScattered clouds.14 mph41%29.74 "HgN/A
2:00 PM95 °FScattered clouds.14 mph39%29.74 "HgN/A
1:00 PM95 °FScattered clouds.14 mph39%29.77 "HgN/A
12:00 PM93 °FScattered clouds.14 mph47%29.80 "HgN/A
11:00 AM90 °FPartly sunny.14 mph52%29.83 "HgN/A
10:00 AM88 °FPassing clouds.9 mph52%29.86 "HgN/A
9:00 AM88 °FScattered clouds.9 mph55%29.86 "HgN/A
8:00 AM84 °FPassing clouds.14 mph66%29.86 "HgN/A
7:00 AM81 °FPassing clouds.5 mph74%29.86 "HgN/A
6:00 AM75 °FPassing clouds.5 mph89%29.86 "HgN/A
5:00 AM75 °FPassing clouds.No wind89%29.83 "HgN/A
4:00 AM75 °FPassing clouds.No wind89%29.80 "HgN/A
3:00 AM73 °FPassing clouds.5 mph94%29.83 "HgN/A
2:00 AM75 °FPassing clouds.5 mph89%29.83 "HgN/A
1:00 AM73 °FPassing clouds.No wind94%29.83 "HgN/A
Weather by CustomWeather, © 2016

See weather overviewHow to use our weather pages